This demonstration page uses our WeatherBlox Daily Observations layout. Learn more.

Left ArrowRight Arrow

39.51506, -84.39828

Hourly Observations for April 19, 2015

Temp ( °F °C ) Dew Point ( °F °C ) Humidity (%) Winds ( mph kmh ) Pressure ( in mb ) Visibility ( mi km ) Precip ( " mm )
12:15 am 00:15 Clear 64 18 49 9.4 57 57 NE 9 15 29.97 1015 10 16.0934 N/A
12:35 am 00:35 Clear 65 18.1 49 9.4 57 57 NE 8 13 29.94 1014 10 16.0934 N/A
12:55 am 00:55 Clear 64 18 49 9.3 57 57 NE 8 13 29.94 1014 10 16.0934 N/A
1:15 am 01:15 Clear 64 18 49 9.2 57 57 NE 9 15 29.94 1014 10 16.0934 N/A
1:35 am 01:35 Clear 64 17.6 48 9 57 57 NE 9 15 29.94 1014 10 16.0934 N/A
1:55 am 01:55 Clear 63 17.1 47 8.6 58 58 ENE 8 13 29.94 1014 10 16.0934 N/A
2:15 am 02:15 Clear 63 17.1 47 8.1 56 56 ENE 12 19 29.94 1014 10 16.0934 N/A
2:35 am 02:35 Clear 62 16.7 46 7.9 56 56 ENE 12 19 29.94 1014 10 16.0934 N/A
2:55 am 02:55 Clear 62 16.6 46 7.7 56 56 ENE 8 13 29.91 1013 10 16.0934 N/A
3:15 am 03:15 Clear 62 16.6 46 7.5 55 55 ENE 10 17 29.91 1013 10 16.0934 N/A
3:35 am 03:35 Clear 62 16.6 45 7.2 54 54 ENE 8 13 29.91 1013 10 16.0934 N/A
3:55 am 03:55 Clear 61 16 45 7 55 55 ENE 8 13 29.91 1013 10 16.0934 N/A
4:15 am 04:15 Clear 61 16 44 6.6 54 54 ENE 9 15 29.88 1012 10 16.0934 N/A
4:35 am 04:35 Clear 61 16 44 6.4 53 53 ENE 10 17 29.88 1012 10 16.0934 N/A
4:55 am 04:55 Clear 61 16.1 43 6.3 52 52 ENE 8 13 29.88 1012 10 16.0934 N/A
5:15 am 05:15 Clear 61 16.1 43 6.1 52 52 NE 5 7 29.88 1012 10 16.0934 N/A
5:35 am 05:35 Clear 61 16.2 43 6 51 51 NE 6 9 29.88 1012 10 16.0934 N/A
5:55 am 05:55 Clear 61 16.1 43 5.9 51 51 ENE 7 11 29.85 1011 10 16.0934 N/A
6:15 am 06:15 Clear 61 16 43 6.2 52 52 ENE 6 9 29.85 1011 10 16.0934 N/A
6:35 am 06:35 Clear 61 16 42 5.8 51 51 ENE 6 9 29.85 1011 10 16.0934 N/A
6:55 am 06:55 Sunny 61 16 42 5.6 50 50 ENE 8 13 29.85 1011 10 16.0934 N/A
7:15 am 07:15 Sunny 61 16 42 5.6 50 50 ENE 9 15 29.85 1011 10 16.0934 N/A
7:35 am 07:35 Sunny 61 16.1 42 5.4 49 49 ENE 7 11 29.85 1011 10 16.0934 N/A
7:55 am 07:55 Partly Cloudy 61 16 42 5.6 50 50 ENE 10 17 29.85 1011 10 16.0934 N/A
8:15 am 08:15 Cloudy 61 16 42 5.4 50 50 ENE 10 17 29.85 1011 10 16.0934 N/A
8:35 am 08:35 Cloudy 61 16.1 42 5.7 50 50 ENE 7 11 29.83 1010 10 16.0934 N/A
8:55 am 08:55 Cloudy 62 16.6 43 6.1 50 50 ENE 7 11 29.83 1010 10 16.0934 N/A
9:15 am 09:15 Cloudy with Drizzle 62 16.6 44 6.4 51 51 ENE 6 9 29.83 1010 10 16.0934 N/A
9:35 am 09:35 Cloudy 62 16.6 44 6.8 53 53 ENE 7 11 29.83 1010 10 16.0934 N/A
9:55 am 09:55 Cloudy 62 16.7 44 6.8 52 52 ENE 5 7 29.83 1010 10 16.0934 N/A
10:15 am 10:15 Cloudy 63 17 45 7.3 53 53 NE 3 6 29.83 1010 10 16.0934 N/A
10:35 am 10:35 Cloudy 63 17.3 46 7.9 54 54 N N/A 29.83 1010 10 16.0934 N/A
10:55 am 10:55 Cloudy with Light Rain 64 18 49 9.2 57 57 N N/A 29.8 1009 10 16.0934 N/A
11:15 am 11:15 Cloudy with Light Rain 64 18 49 9.5 58 58 E 3 6 29.8 1009 10 16.0934 N/A
11:35 am 11:35 Cloudy with Light Rain 64 18 51 10.7 63 63 ESE 6 9 29.8 1009 10 16.0934 N/A
11:55 am 11:55 Cloudy with Light Rain 64 18 53 11.4 66 66 ESE 7 11 29.8 1009 10 16.0934 N/A
12:15 pm 12:15 Cloudy with Rain 64 18 55 12.8 72 72 ESE 6 9 29.77 1008 10 16.0934 N/A
12:35 pm 12:35 Cloudy with Light Rain 64 18 56 13.6 76 76 ESE 8 13 29.74 1007 10 16.0934 N/A
12:55 pm 12:55 Cloudy with Light Rain 64 18 58 14.4 80 80 SE 9 15 29.74 1007 10 16.0934 N/A
1:15 pm 13:15 Cloudy with Drizzle 65 18.6 59 15.2 81 81 ESE 10 17 29.74 1007 10 16.0934 N/A
1:35 pm 13:35 Cloudy with Rain 65 18.1 59 15.1 83 83 ESE 13 20 29.71 1006 10 16.0934 N/A
1:55 pm 13:55 Cloudy with Light Rain N/A N/A N/A undefined N/A N/A 10 16.0934 N/A
2:15 pm 14:15 Cloudy with Rain N/A N/A N/A undefined N/A N/A 7 11.26538 N/A
2:35 pm 14:35 Cloudy with Light Rain 67 19.5 62 16.4 82 82 SE 10 17 29.68 1005 10 16.0934 N/A
2:55 pm 14:55 Cloudy with Light Rain 67 19.5 61 16.2 81 81 ESE 17 28 29.65 1004 10 16.0934 N/A
3:15 pm 15:15 Cloudy N/A N/A N/A undefined N/A N/A N/A N/A
3:35 pm 15:35 undefined 64 18 59 15.2 84 84 undefined N/A N/A 3 4.82802 N/A
3:55 pm 15:55 undefined N/A N/A N/A undefined N/A N/A N/A N/A
4:15 pm 16:15 undefined N/A N/A N/A undefined N/A N/A N/A N/A
4:35 pm 16:35 Cloudy with Light Rain N/A N/A N/A undefined N/A N/A N/A N/A
4:55 pm 16:55 undefined 64 18 60 15.5 85 85 SE 10 17 29.56 1001 N/A N/A
5:15 pm 17:15 Cloudy with Rain 64 18 60 15.5 85 85 SE 9 15 29.53 1000 5 8.0467 N/A
5:35 pm 17:35 Cloudy with Rain 64 18 60 15.5 85 85 SE 12 19 29.5 999 7 11.26538 N/A
5:55 pm 17:55 Cloudy with Rain 64 18 60 15.5 85 85 SSE 14 22 29.5 999 5 8.0467 N/A
6:15 pm 18:15 Cloudy 66 19 61 16.2 84 84 SE 12 19 29.5 999 10 16.0934 N/A
6:35 pm 18:35 Cloudy with Drizzle 67 19.5 62 16.5 83 83 SSE 15 24 29.47 998 7 11.26538 N/A
6:55 pm 18:55 Cloudy with Light Rain 67 19.5 62 16.6 83 83 SSE 12 19 29.47 998 7 11.26538 N/A
7:15 pm 19:15 Cloudy with Light Rain 67 19.5 62 16.5 83 83 SSE 13 20 29.47 998 10 16.0934 N/A
7:35 pm 19:35 Cloudy 69 20.8 64 17.5 82 82 SSE 12 19 29.47 998 10 16.0934 N/A
7:55 pm 19:55 Cloudy 69 20.8 64 17.5 82 82 SSE 13 20 29.47 998 10 16.0934 N/A
8:15 pm 20:15 Cloudy with Light Rain 68 20.2 63 17.2 83 83 SSE 16 26 29.47 998 10 16.0934 N/A
8:35 pm 20:35 Cloudy 67 19.5 63 17 86 86 SSE 10 17 29.47 998 10 16.0934 N/A
8:55 pm 20:55 Cloudy 67 19.5 63 17 86 86 SE 9 15 29.47 998 10 16.0934 N/A
9:15 pm 21:15 Cloudy 66 19.1 62 16.7 86 86 SSE 6 9 29.47 998 10 16.0934 N/A
9:35 pm 21:35 Cloudy with Heavy Rain 67 19.5 63 17.1 86 86 SSE 10 17 29.44 997 7 11.26538 N/A
9:55 pm 21:55 Cloudy with Light Rain 67 19.5 63 17.1 86 86 SSE 9 15 29.44 997 10 16.0934 N/A
10:15 pm 22:15 Cloudy with Rain 64 18 60 15.8 87 87 SSW 9 15 29.44 997 5 8.0467 N/A
10:35 pm 22:35 Cloudy 67 19.5 63 17 86 86 SSW 10 17 29.44 997 10 16.0934 N/A
10:55 pm 22:55 Cloudy 67 19.5 63 17 86 86 S 12 19 29.44 997 10 16.0934 N/A
11:15 pm 23:15 Cloudy 67 19.5 62 16.7 84 84 SSW 10 17 29.44 997 10 16.0934 N/A
11:35 pm 23:35 Cloudy 67 19.5 62 16.8 84 84 SSW 13 20 29.41 996 10 16.0934 N/A
11:55 pm 23:55 Cloudy 66 18.9 61 16.3 85 85 SSW 16 26 29.41 996 10 16.0934 N/A

Powered by AerisWeather